Location: Pella
(41.4080°N, 92.9160°W)
Time: 21:21:40
(UTC-05:00)

ASTRO E2 - Visible Passes

Search period start: 02 September 2014 00:00
Search period end: 12 September 2014 00:00
Orbit: 535 x 542 km, 31.4° (Epoch: 31 August)

Date Brightness Start Highest point End Pass type
(mag) Time Alt. Az. Time Alt. Az. Time Alt. Az.
08 Sep 5.3 05:42:14 10° S 05:42:59 10° SSE 05:43:44 10° SSE visible
09 Sep 5.1 05:30:39 10° S 05:32:22 12° SSE 05:34:04 10° SE visible
10 Sep 5.0 05:20:20 12° S 05:21:44 14° SSE 05:23:56 10° SE visible
11 Sep 4.8 05:10:27 15° S 05:11:07 16° SSE 05:13:38 10° SE visible
